Regional Weather Roundup
Issued by NWS

Home | Current Version | Previous Version | Graphics & Text | Print | Product List | Glossary On
Versions: 1 2 3 4 5 6 7 8 9 10 11 12 13 14 15 16 17 18 19 20 21 22 23 24 25 26 27 28 29 30 31 32 33 34 35 36 37 38 39 40 41 42 43 44 45 46 47 48 49 50
000
ASUS43 KLOT 210904
RWRIL

ILLINOIS REGIONAL WEATHER ROUNDUP
NATIONAL WEATHER SERVICE CHICAGO/ROMEOVILLE IL
400 AM CDT FRI JUL 21 2017

NOTE: "FAIR" INDICATES FEW OR NO CLOUDS BELOW 12,000 FEET WITH NO
SIGNIFICANT WEATHER AND/OR OBSTRUCTIONS TO VISIBILITY.

* THESE STATIONS ARE NOT UNDER NWS QUALITY CONTROL. THEY ALSO MAY NOT
  REPORT WEATHER SUCH AS PRECIPITATION OR FOG.

ILZ001-002-007-009-015-016-024-211000-
NORTHWEST ILLINOIS

CITY           SKY/WX    TMP DP  RH WIND       PRES   REMARKS
MOLINE         LGT RAIN  73  71  93 CALM      29.94S
STERLING*      CLOUDY    72  70  93 E7        29.98F
SAVANNA*       LGT RAIN  73  70  93 CALM      29.99S
$$

ILZ003-004-008-010-011-017-018-211000-
NORTH CENTRAL ILLINOIS

CITY           SKY/WX    TMP DP  RH WIND       PRES   REMARKS
ROCKFORD       CLOUDY    76  73  91 W3        30.01R
FREEPORT*      CLOUDY    72  71  98 SW3       30.02R
ROCHELLE*      CLOUDY    71  71  99 W8        30.03R
DE KALB*       CLOUDY    70  69  96 S5        30.02R
PERU*          CLOUDY    67  65  91 CALM      30.01R
$$

ILZ005-006-012>014-019>023-211000-
NORTHEAST ILLINOIS

CITY           SKY/WX    TMP DP  RH WIND       PRES   REMARKS
CHICAGO-OHARE  CLOUDY    75  70  84 SE6       29.96F
CHICAGO-MIDWAY CLOUDY    76  70  82 CALM      29.96F
AURORA         CLOUDY    70  70 100 SW5       30.00R
LANSING*       CLOUDY    71  68  91 CALM      29.97F
JOLIET*        CLOUDY    73  73  98 CALM      29.97F
WAUKEGAN       MOCLDY    68  68 100 CALM      29.98R FOG
DUPAGE AIRPORT CLOUDY    72  69  90 S5        29.98R
WHEELING       CLOUDY    73  73 100 CALM      29.98F
MORRIS*        CLOUDY    72  71  97 CALM      29.98R FOG
ROMEOVILLE*    CLOUDY    71  69  92 CALM      29.98F
NORTHERLY ISL    N/A     74  68  81 CALM        N/A
$$

LMZ740>746-211000-
SOUTHERN LAKE MICHIGAN

STATION/POSITION SKY/WX   TEMP    WIND        PRES    VSBY  WAVE
                          AIR SEA DIR/SP/G                  HT/PER
                          (F)     (DEG/KT/KT) (MB)    (MI)  (FT/S)
SOUTHERN BUOY              71 70  320/  6/  8 1014.7          0
WILMETTE HARBOR            72 72   70/  6/  6   N/A           0
HARRISON CRIB              78     130/  6/  8   N/A
BURNHAM HARBOR             74                   N/A
CALUMET HARBOR             77      CALM  /  3 1014.6F
BURNS HARBOR               76     210/  7/ 14 1015.9R
MICHIGAN CITY              72     210/  6/  7   N/A
MICHIGAN CITY 6N           75 74  230/ 14/ 17   N/A           0
ST. JOSEPH                 73 75  360/  4/  6 1015.1R         0
$$

ILZ025>027-034>036-040-047-049-050-058-095>099-211000-
WEST-CENTRAL ILLINOIS

CITY           SKY/WX    TMP DP  RH WIND       PRES   REMARKS
QUINCY         CLOUDY    77  74  90 SW5       29.96S
GALESBURG*     CLOUDY    73  70  88 E6        29.97F
MACOMB*        MOCLDY    77  76  95 NE6       29.99S
JACKSONVILLE*  PTCLDY    75  73  92 CALM      29.96S
PITTSFIELD*    CLOUDY    76  73  91 CALM      29.98S
$$

ILZ028>032-037-038-041>044-048-051>054-059>061-211000-
CENTRAL ILLINOIS

CITY           SKY/WX    TMP DP  RH WIND       PRES   REMARKS
PONTIAC        LGT RAIN  74  73  98 E6        29.99R
BLOOMINGTON    CLOUDY    75  71  87 E5        29.99S
DECATUR        CLOUDY    81  73  76 W7        29.97R HX  86
PEORIA         CLOUDY    79  75  87 N8G28     29.99R HX  83
LACON*         TSTM      73  73 100 NE6       29.99R VSB 1
LINCOLN*       CLOUDY    79  77  95 NE3       29.96R HX  83
SPRINGFIELD    CLOUDY    77  75  93 S6        29.96S
TAYLORVILLE    CLOUDY    75  73  95 CALM      29.97S
$$

ILZ033-039-045-046-055>057-062-063-211000-
EAST-CENTRAL ILLINOIS

CITY           SKY/WX    TMP DP  RH WIND       PRES   REMARKS
RANTOUL*       CLOUDY    77  72  84 NE12      29.99F
MATTOON        MOCLDY    80  76  87 SW7       29.96S HX  86
PARIS*         CLOUDY    78  75  91 SW7       29.97S HX  80
$$

ILZ079-100>102-211000-
SOUTHWEST ILLINOIS

CITY           SKY/WX    TMP DP  RH WIND       PRES   REMARKS
ALTON          CLEAR     75  74  98 CALM      29.97S
BELLEVILLE     PTCLDY    78  75  90 CALM      29.98R HX  80
CAHOKIA*       CLEAR     78  72  81 CALM      29.96R HX  80
SPARTA*        CLEAR     79  75  87 CALM      29.99R HX  84
$$

ILZ064>066-069>071-074>076-080>082-084>086-088>090-092>094-211000-
SOUTH-CENTRAL ILLINOIS

CITY           SKY/WX    TMP DP  RH WIND       PRES   REMARKS
CARBONDALE     CLEAR     77  76  96 S3        29.97S
CAIRO*         CLEAR     79  76  90 CALM      29.99S HX  84
EFFINGHAM*     CLOUDY    76  75  95 CALM      29.98S
MARION         CLEAR     79  79 100 S3        29.99S HX  83
MT. VERNON     PTCLDY    74  73  97 SW3       29.98S
CENTRALIA*     CLEAR     77  76  96 CALM      29.97S
SALEM*         PTCLDY    78  75  88 CALM      29.97S HX  81
METROPOLIS*    CLEAR     76  75  97 CALM      30.00S FOG
$$

ILZ067-068-072-073-078-083-087-091-211000-
SOUTHEAST ILLINOIS

CITY           SKY/WX    TMP DP  RH WIND       PRES   REMARKS
LAWRENCEVILLE  PTCLDY    75  74  96 S5        29.98S
FLORA*         PTCLDY    78  75  91 S5        29.97S HX  80
FAIRFIELD*     CLOUDY    76  75  95 CALM      29.97R
HARRISBURG*    CLEAR     75  74  99 CALM      29.99S FOG
ROBINSON*      MOCLDY    75  73  93 CALM      29.97F
CARMI*         CLEAR     74  74  99 CALM      29.97S FOG
$$

ABBREVIATIONS USED IN REMARKS
   TC - TEMPERATURE IN CELSIUS
  WCI - WIND CHILL INDEX
   HX - HEAT INDEX
  VSB - VISIBILITY
$$





USA.gov is the U.S. government's official web portal to all federal, state and local government web resources and services.